CAPE
1105 914 662 509 350 168 65 206 253 257 326 232 348 250 325 549 230 141 994 1363 1871 2159 2708 3070 3427 3120 2805 2444 2306 2358 2297 2305 2226 2203 2214 2248 2351 2278 2271 2166 1979 1749 2105 1886 1620 1557 1497 1234 968
1011 909 644 897 175 73 166 282 276 156 118 192 281 417 563 738 1031 1152 1325 1735 1907 2217 2574 2893 3547 3372 2865 2659 2492 2453 2340 2301 2404 2267 1896 2123 1581 1657 2245 2220 2148 2131 2037 1843 1536 1804 1556 1283 789
1053 697 958 975 235 34 199 381 404 452 306 401 530 587 725 863 1094 1185 1452 1865 2074 2253 2581 2819 3413 3316 2821 2825 2770 2627 2459 2396 2301 2395 2299 2168 2080 1936 1311 1649 1880 1862 1877 2028 1674 1875 1317 1308 1032
951 684 1026 98 0 29 278 494 573 636 638 519 541 588 684 859 999 1313 1591 1826 1992 2280 2432 3289 3375 2707 2659 2784 2719 2625 2476 2294 2274 2247 2279 2134 2138 2207 2001 1558 1235 1345 1775 1822 1670 1192 958 1567 1151
545 212 5 1 0 182 312 538 517 614 633 617 643 784 874 865 1305 1377 1450 1618 1919 2199 2636 2695 3346 3287 3171 2700 2644 2544 2464 2363 2266 2229 2236 2162 2198 2191 2000 2072 1956 1521 1302 1546 1697 1233 1389 1372 1513
93 0 0 1 0 62 293 484 641 683 748 645 689 727 908 1018 1092 1214 1443 1602 1788 2306 2552 2601 3078 3035 2758 2631 2632 2517 2313 2325 2387 2349 2332 2303 2175 1861 1952 2026 1974 2029 1684 1416 1415 1705 1512 1607 1577
441 0 5 0 21 125 304 457 653 668 640 666 644 827 846 893 908 1173 1652 1788 1996 2347 2504 2583 2561 2425 2682 2706 2621 2479 2371 2490 2532 2493 2359 2301 2053 2089 2002 2066 1912 1931 1988 1658 1339 1262 1707 1665 1705
498 1 0 0 0 48 309 399 723 650 861 728 723 772 929 951 1088 1438 1541 1694 2056 2187 2291 2383 2400 2311 2306 2335 2635 2536 2438 2372 2470 2354 2323 2125 2054 1917 1881 2163 2031 1599 1485 1971 1777 1298 1325 1587 1603
140 13 0 0 0 136 339 440 752 738 745 777 819 766 970 1167 1194 1286 1433 1536 1672 1895 2095 2153 2179 2204 2212 2147 2208 2729 2418 2454 2450 2336 2412 2257 1851 1790 1776 2036 1988 1624 1454 1288 1389 1611 1482 1416 1588
14 5 0 0 0 73 142 208 579 715 700 936 808 1189 1271 1262 1119 1136 1147 1161 1348 1600 1823 1914 1926 1962 1977 2061 2099 2218 1968 1918 1876 1910 2141 2254 1905 1682 1609 1831 1984 1661 1643 1473 1279 1345 1563 1526 936
6 8 10 18 11 35 38 53 639 872 957 859 780 1379 1543 1406 1147 1199 1202 1060 1092 1304 1417 1634 1782 1777 1732 1898 2016 2024 1933 1915 1883 1739 1577 1862 1595 1465 1541 1310 1147 1296 1720 1363 1328 1123 1096 1161 1022
0 5 7 4 166 26 34 99 258 720 772 911 908 1308 1503 1451 1342 1395 1372 1398 1465 1467 1417 1504 1578 1527 1491 1600 1968 1954 1678 1642 1467 1753 1794 1340 1332 1091 958 1145 1053 946 1225 1084 1009 922 573 311 200
0 2 2 0 14 47 62 91 116 368 907 998 948 1046 1417 1510 1544 1492 1559 1617 1662 1630 1651 1749 1702 1585 1613 1638 1946 1684 1450 1328 925 804 718 903 914 725 538 608 651 590 666 829 452 309 279 74 0
0 0 0 0 8 28 59 103 331 509 875 1024 981 984 1038 1197 1364 1419 1466 1628 1679 1688 1765 1802 1846 1740 1793 1806 1723 1488 1356 612 304 451 221 533 489 531 460 460 474 401 438 462 284 199 171 2 0
8 0 14 2 4 27 41 100 270 575 891 973 1032 1049 1063 1070 1200 1365 1303 1355 1572 1624 1710 1775 1931 1921 1948 1603 1137 990 544 440 226 166 117 215 290 197 450 292 317 203 116 88 79 95 42 2 0
0 0 0 55 28 34 82 60 238 748 859 976 1082 1083 1098 1120 1163 1222 1256 1284 1444 1734 1814 1866 1946 2072 1894 1518 1450 1276 1199 547 354 191 113 90 98 361 422 200 133 68 67 57 14 0 0 0 5
1 0 0 25 61 52 81 62 131 736 881 976 1154 1196 1216 1278 1278 1366 1410 1402 1460 1720 1931 1951 1972 2150 2021 1822 1622 1381 339 227 186 146 94 124 336 217 174 133 45 32 91 83 26 0 4 7 87
14 14 0 0 7 0 61 52 2 653 956 1037 1186 1260 1279 1379 1447 1487 1528 1414 1411 1594 1877 1943 2161 2086 2020 1689 1483 895 353 201 78 38 67 54 66 132 203 123 38 55 34 15 51 84 51 33 111
20 16 1 0 0 0 0 13 4 550 772 1012 1162 1186 1201 1254 1429 1508 1542 1395 1435 1758 1790 1977 2264 2284 1988 1838 1559 1085 42 255 165 93 49 37 41 53 189 106 81 90 117 164 167 89 102 93 34
2 0 0 0 8 0 1 4 0 17 137 303 884 886 1027 1110 1244 1420 1509 1611 1867 2022 2040 2039 2251 2109 2057 1982 1687 1293 53 20 9 68 154 118 65 117 139 105 121 188 189 202 165 126 120 32 3
3 0 0 0 0 0 2 0 0 3 13 63 259 501 890 1123 987 1344 1549 1848 2182 2355 2253 2205 2270 2175 2129 1796 1791 1414 772 0 19 410 645 608 356 363 422 338 317 239 227 148 140 109 81 57 17
0 0 0 0 0 2 0 0 2 0 40 60 144 579 959 1015 900 1169 1505 1883 2204 2504 2334 2279 2239 2112 2122 1810 1612 1526 805 45 64 406 680 1105 813 740 648 372 218 137 83 71 83 104 85 6 0
0 0 0 0 0 0 0 0 0 0 24 61 45 334 735 1004 867 1294 1419 1790 2414 2485 2255 1931 1589 1869 1995 1959 1665 882 220 260 654 750 1028 871 599 424 314 191 102 42 21 25 60 63 18 48 64
0 0 0 0 0 0 0 0 0 0 18 55 76 282 358 835 869 1240 1415 2037 2786 2854 2380 1983 790 1693 1950 1829 1450 781 208 760 833 904 791 647 503 348 314 128 18 0 0 1 18 77 56 57 78
0 0 0 0 0 0 0 0 0 1 1 16 127 270 316 582 970 1243 1996 2635 3424 3355 2879 2388 1385 1699 2032 1863 1320 1140 841 1228 938 729 448 461 376 268 199 35 0 0 0 2 1 0 0 0 12
0 0 0 0 0 0 0 0 0 102 368 173 12 27 491 821 1528 1890 1581 3076 3659 3384 3118 2635 2005 2124 2053 1647 1252 1170 1109 1198 567 330 237 244 182 137 130 11 0 0 0 0 4 11 9 2 0
0 0 0 0 0 0 0 0 0 630 1070 1384 745 623 1084 1332 1371 1770 1518 1531 3352 3418 3137 2744 2420 2064 1594 1144 1131 1113 1086 361 165 108 105 147 157 139 133 2 3 0 6 9 20 8 11 4 0
0 0 0 0 0 0 0 0 0 816 897 1584 1286 1054 1162 1285 1363 1030 486 498 1498 3012 3106 2648 2369 1892 1455 1337 1276 1177 830 98 4 28 93 112 111 82 65 10 0 0 1 4 4 0 0 0 2
0 0 0 0 0 0 0 0 49 850 1215 1709 1572 1517 1462 1469 1462 449 373 374 364 1606 2786 2491 2260 1724 1475 1417 1288 1160 628 5 33 50 59 68 43 20 9 0 0 0 0 0 0 0 0 0 0
0 0 0 0 0 0 0 4 115 1157 1385 1657 2145 1875 1713 1369 329 177 215 127 335 1658 2706 2459 2008 1732 1511 1294 910 781 475 16 155 88 70 46 0 0 0 0 0 0 0 0 0 0 0 0 0
CIN
-116 -132 -142 -136 -99 -142 -35 -34 -41 -48 -41 -42 -31 -20 -96 -109 -98 -74 -120 -98 -50 -21 -1 -0 -0 -0 -0 -1 -7 -2 -1 -0 -0 -0 -0 -0 -0 -0 -0 -0 -0 -0 -0 -0 -0 -0 -0 -0 -0
-159 -156 -162 -87 -150 -58 -42 -66 -114 -107 -65 -36 -68 -70 -97 -81 -88 -94 -69 -26 -36 -21 -2 -1 -0 -0 -0 -0 -0 -0 -1 -0 -0 -0 -3 -0 -10 -3 -0 -0 -1 -0 -0 -0 -0 -0 -0 -0 -0
-152 -187 -137 -100 -100 -40 -62 -76 -101 -90 -70 -30 -35 -35 -61 -77 -109 -106 -102 -42 -21 -17 -5 -2 -0 -0 -0 -0 -0 -0 -0 -0 -0 -0 -0 -0 -0 -0 -8 -1 -0 -1 -0 -0 -0 -0 -0 -0 -0
-190 -209 -149 -50 -0 -51 -66 -77 -88 -52 -25 -57 -73 -72 -78 -87 -118 -125 -100 -61 -43 -17 -10 -0 -0 -1 -0 -0 -0 -0 -0 -4 -0 -0 -0 -2 -0 -0 -0 -2 -6 -4 -0 -0 -0 -0 -0 -0 -0
-279 -339 -76 -56 -0 -67 -75 -64 -85 -93 -89 -73 -96 -77 -58 -81 -125 -145 -134 -103 -91 -46 -5 -5 -0 -0 -0 -0 -0 -0 -0 -0 -0 -0 -0 -0 -0 -0 -2 -0 -0 -0 -4 -0 -0 -0 -0 -0 -1
-66 -0 -0 -82 -0 -79 -95 -102 -101 -113 -121 -135 -118 -101 -47 -98 -145 -133 -118 -105 -80 -37 -16 -9 -0 -0 -0 -0 -0 -0 -0 -0 -0 -0 -0 -1 -3 -8 -2 -0 -0 -0 -0 -1 -1 -1 -0 -0 -2
-99 -0 -113 -0 -48 -75 -98 -117 -126 -160 -151 -145 -151 -112 -103 -84 -129 -138 -89 -78 -58 -22 -12 -3 -4 -6 -0 -0 -0 -0 -0 -0 -0 -0 -0 -0 -0 -0 -3 -1 -3 -0 -0 -1 -8 -9 -0 -2 -1
-119 -79 -0 -0 -0 -86 -75 -92 -127 -162 -136 -176 -191 -163 -153 -45 -116 -98 -80 -66 -35 -28 -27 -20 -17 -19 -17 -14 -0 -0 -0 -0 -0 -0 -0 -0 -0 -0 -1 -0 -1 -1 -0 -0 -0 -4 -6 -3 -3
-105 -30 -0 -0 -0 -92 -138 -126 -176 -154 -181 -182 -187 -201 -174 -133 -117 -91 -73 -70 -54 -59 -44 -23 -28 -16 -23 -36 -23 -1 -1 -0 -0 -0 -0 -0 -0 -1 -1 -2 -1 -0 -0 -0 -0 -0 -2 -9 -2
-137 -12 -0 -0 -0 -129 -144 -120 -125 -185 -222 -196 -213 -246 -199 -159 -139 -84 -83 -130 -107 -103 -88 -59 -54 -44 -32 -24 -25 -16 -18 -12 -9 -2 -0 -0 -1 -4 -10 -10 -1 -4 -0 -0 -0 -0 -2 -4 -21
-93 -31 -18 -91 -159 -134 -23 -106 -123 -186 -217 -267 -250 -249 -201 -174 -76 -41 -83 -62 -46 -181 -147 -108 -85 -64 -54 -37 -36 -32 -24 -13 -9 -5 -7 -2 -7 -13 -12 -20 -26 -10 -0 -0 -1 -3 -5 -11 -24
-0 -6 -14 -77 -167 -69 -57 -79 -151 -178 -168 -252 -267 -304 -235 -177 -92 -75 -155 -152 -155 -161 -174 -137 -122 -110 -95 -64 -44 -42 -48 -39 -39 -25 -15 -12 -12 -29 -22 -23 -23 -28 -10 -17 -23 -28 -50 -73 -96
-0 -5 -19 -0 -170 -66 -76 -33 -130 -151 -227 -264 -266 -251 -214 -157 -117 -106 -153 -134 -122 -144 -153 -129 -123 -127 -110 -76 -48 -51 -62 -48 -65 -53 -69 -41 -36 -22 -43 -41 -22 -55 -40 -29 -47 -49 -52 -67 -0
-0 -0 -0 -0 -187 -155 -87 -23 -145 -183 -236 -217 -189 -219 -222 -199 -184 -133 -141 -154 -123 -144 -126 -114 -107 -114 -86 -68 -46 -52 -39 -48 -54 -36 -52 -40 -25 -40 -25 -39 -32 -52 -31 -45 -65 -46 -38 -51 -0
-22 -0 -165 -90 -229 -178 -105 -55 -138 -261 -256 -224 -232 -212 -161 -164 -180 -160 -158 -173 -143 -180 -118 -104 -103 -95 -55 -56 -41 -23 -32 -30 -53 -60 -26 -38 -24 -38 -27 -24 -30 -44 -127 -116 -92 -63 -63 -50 -0
-0 -0 -0 -160 -176 -134 -21 -28 -129 -239 -275 -260 -271 -238 -195 -172 -139 -119 -111 -129 -99 -171 -128 -89 -138 -78 -52 -32 -40 -54 -24 -47 -26 -18 -31 -47 -48 -41 -21 -66 -76 -94 -148 -130 -59 -27 -0 -0 -96
-3 -0 -0 -96 -110 -74 -43 -33 -64 -240 -280 -280 -257 -281 -235 -169 -135 -106 -89 -132 -109 -185 -95 -80 -112 -79 -50 -59 -40 -38 -186 -179 -125 -46 -20 -34 -14 -28 -60 -60 -103 -159 -127 -117 -128 -0 -73 -74 -43
-2 -11 -0 -0 -20 -7 -75 -76 -33 -221 -221 -237 -260 -245 -236 -195 -143 -119 -96 -114 -84 -194 -101 -79 -141 -77 -44 -48 -55 -74 -220 -187 -172 -158 -61 -34 -26 -18 -55 -70 -133 -126 -119 -114 -66 -58 -83 -128 -82
-5 -11 -22 -0 -0 -0 -0 -10 -20 -158 -204 -208 -229 -234 -200 -177 -138 -115 -105 -96 -327 -290 -218 -212 -110 -63 -40 -66 -51 -69 -272 -191 -172 -164 -166 -129 -148 -152 -60 -81 -94 -83 -62 -50 -123 -96 -49 -65 -124
-11 -0 -0 -0 -95 -2 -13 -1 -0 -155 -215 -319 -215 -177 -154 -199 -157 -113 -118 -314 -308 -264 -218 -197 -106 -63 -43 -55 -77 -63 -251 -183 -184 -103 -87 -127 -145 -98 -63 -80 -81 -56 -50 -61 -76 -64 -61 -50 -15
-0 -0 -0 -0 -0 -0 -44 -0 -0 -197 -358 -437 -449 -372 -291 -137 -169 -108 -269 -266 -259 -236 -209 -135 -90 -42 -46 -57 -76 -65 -85 -0 -45 -49 -16 -21 -29 -20 -25 -36 -33 -34 -27 -33 -40 -47 -68 -61 -31
-0 -0 -0 -0 -0 -10 -0 -33 -105 -0 -304 -394 -404 -475 -395 -142 -50 -269 -256 -258 -257 -236 -206 -136 -83 -45 -52 -81 -72 -65 -94 -13 -194 -48 -20 -12 -27 -28 -31 -27 -17 -13 -30 -30 -35 -58 -60 -10 -0
-0 -0 -0 -0 -0 -0 -0 -0 -0 -0 -173 -206 -287 -74 -422 -303 -142 -269 -251 -252 -247 -209 -201 -147 -235 -114 -69 -82 -76 -133 -197 -176 -58 -33 -15 -15 -21 -18 -16 -33 -46 -51 -71 -53 -26 -32 -35 -41 -30
-0 -0 -0 -0 -0 -0 -0 -0 -0 -0 -142 -91 -38 -57 -260 -312 -190 -273 -259 -267 -229 -205 -175 -43 -43 -77 -89 -91 -97 -150 -57 -73 -30 -17 -20 -27 -28 -25 -11 -11 -104 -0 -0 -3 -23 -5 -20 -24 -17
-0 -0 -0 -0 -0 -0 -0 -0 -0 -24 -11 -127 -85 -86 -72 -22 -33 -212 -292 -291 -190 -168 -137 -84 -173 -99 -99 -83 -109 -109 -94 -18 -30 -34 -41 -25 -50 -32 -22 -89 -0 -0 -0 -5 -15 -0 -0 -0 -11
-0 -0 -0 -0 -0 -0 -0 -0 -0 -113 -307 -433 -61 -199 -553 -30 -339 -201 -124 -93 -183 -167 -118 -66 -141 -77 -108 -86 -112 -86 -42 -8 -33 -38 -64 -45 -38 -74 -67 -106 -0 -0 -0 -0 -10 -11 -11 -2 -0
-0 -0 -0 -0 -0 -0 -0 -0 -0 -209 -346 -311 -643 -500 -416 -349 -329 -221 -107 -46 -12 -128 -108 -51 -115 -101 -137 -158 -131 -73 -18 -88 -37 -51 -59 -53 -47 -48 -43 -10 -21 -0 -18 -78 -16 -12 -74 -86 -0
-0 -0 -0 -0 -0 -0 -0 -0 -0 -140 -262 -304 -182 -360 -336 -287 -172 -37 -360 -155 -98 -66 -71 -47 -109 -117 -183 -136 -87 -41 -39 -37 -80 -90 -48 -52 -41 -41 -57 -42 -0 -0 -0 -10 -5 -0 -0 -0 -60
-0 -0 -0 -0 -0 -0 -0 -0 -128 -144 -245 -284 -220 -161 -169 -85 -42 -25 -284 -233 -47 -24 -46 -123 -117 -84 -161 -120 -80 -33 -69 -188 -156 -111 -89 -105 -86 -96 -97 -0 -0 -0 -0 -0 -0 -0 -0 -0 -0
-0 -0 -0 -0 -0 -0 -0 -54 -335 -108 -76 -197 -174 -100 -42 -21 -690 -386 -314 -213 -92 -54 -30 -84 -89 -109 -127 -136 -116 -69 -75 -289 -125 -130 -107 -132 -0 -0 -0 -0 -0 -0 -0 -0 -0 -0 -0 -0 -0
Wind_Speed
30 28 23 28 28 30 nan 30 27 21 23 22 20 21 18 16 16 15 11 10 13 9 5 8 12 11 10 10 10 10 12 12 13 13 13 12 12 9 8 9 2 5 5 7 6 6 5 6 5
25 25 22 22 29 nan 29 31 16 19 22 20 19 20 15 17 13 15 12 14 13 9 7 9 13 12 10 9 9 10 10 11 12 13 12 10 9 7 6 3 4 3 1 4 5 6 5 6 4
24 24 19 23 29 nan 27 27 24 21 22 20 20 18 17 17 12 19 17 16 12 10 11 12 17 15 11 8 9 10 10 11 12 10 8 6 5 7 8 8 4 8 7 3 5 5 7 5 4
16 16 25 nan nan nan 26 28 28 22 15 11 16 17 13 16 22 18 19 18 15 14 15 18 19 19 15 10 9 8 7 7 10 10 9 9 5 4 7 7 7 6 6 4 4 4 6 7 7
10 13 nan nan nan 22 22 25 23 21 15 18 19 16 16 19 22 26 25 22 21 18 18 18 21 19 16 15 13 11 10 8 6 7 9 9 8 6 5 6 5 5 9 6 2 3 5 6 8
nan nan nan nan nan nan 22 21 19 16 19 19 15 17 16 26 28 24 23 22 21 20 18 19 21 20 19 17 14 13 12 12 12 8 7 7 8 7 5 5 5 6 8 9 5 4 3 3 4
5 nan nan nan nan 13 21 18 16 18 21 19 23 19 19 26 27 28 21 21 23 19 17 19 17 20 22 17 16 16 15 14 13 13 9 7 7 8 7 9 7 7 7 5 7 5 3 4 5
3 nan nan nan nan nan 13 14 14 16 17 19 28 23 21 30 27 21 20 23 22 21 19 21 21 20 16 10 13 15 15 14 13 13 13 9 9 8 6 7 6 6 7 6 7 8 5 7 9
1 nan nan nan nan 23 21 24 20 18 27 25 25 18 23 29 26 23 22 19 20 20 20 20 20 20 19 16 13 14 14 11 10 9 12 10 8 7 5 7 2 4 7 5 4 6 6 7 7
nan nan nan nan nan nan 22 22 26 26 27 17 16 13 29 34 35 34 31 27 26 26 22 19 19 18 18 16 11 10 6 7 6 6 5 9 9 10 6 5 2 1 5 6 7 9 10 14 15
nan nan nan nan nan nan nan nan 19 30 26 30 39 30 36 35 37 38 34 35 37 30 25 23 17 15 18 16 12 9 8 6 8 7 7 9 10 12 11 9 7 6 5 11 12 14 15 20 17
nan nan nan nan 22 nan nan nan 24 30 31 31 36 39 35 33 35 37 35 34 30 31 31 26 19 16 19 17 17 15 12 10 7 9 8 10 11 12 14 11 8 11 9 11 11 11 10 14 13
nan nan nan nan nan nan nan nan 22 27 30 36 35 36 37 36 34 31 33 32 29 31 32 29 22 22 23 21 20 20 16 9 10 9 10 15 13 13 16 12 12 12 11 11 11 11 11 nan nan
nan nan nan nan nan nan nan 3 10 17 28 34 38 33 35 37 37 30 28 30 33 31 30 27 25 23 20 20 20 20 14 10 13 11 12 17 17 16 16 14 14 14 12 12 13 11 13 nan nan
nan nan nan nan nan nan nan 4 17 16 27 32 38 35 34 36 36 35 35 33 37 34 29 24 25 22 22 22 21 21 19 9 13 12 11 9 13 16 20 12 14 15 11 nan nan nan nan nan nan
nan nan nan nan nan nan nan nan 14 17 22 28 28 29 38 36 37 34 31 36 36 32 29 25 25 26 23 23 21 21 23 18 14 6 3 nan nan 8 12 14 13 nan nan nan nan nan nan nan nan
nan nan nan nan nan nan nan nan 16 16 17 19 24 33 34 25 29 30 32 34 36 34 31 28 29 28 27 26 23 20 20 20 12 7 nan 4 11 11 12 14 nan nan nan nan nan nan nan nan nan
nan nan nan nan nan nan nan nan nan 13 15 20 20 32 29 34 35 33 31 33 35 33 31 27 25 25 26 24 24 18 18 18 nan nan nan nan nan 7 12 13 nan nan nan nan nan nan nan nan 12
nan nan nan nan nan nan nan nan nan 28 18 19 19 16 27 37 29 28 31 32 32 30 28 29 27 27 27 24 23 18 nan 19 18 nan nan nan nan nan 10 13 nan nan 14 13 13 nan 21 nan nan
nan nan nan nan nan nan nan nan nan nan 23 30 29 27 25 28 25 26 29 33 37 35 28 26 27 27 26 24 25 24 nan nan nan nan 12 5 nan 6 8 8 13 11 17 17 16 16 14 nan nan
nan nan nan nan nan nan nan nan nan nan nan nan 10 18 21 26 31 30 31 33 41 31 27 27 22 13 21 24 25 24 21 nan nan 15 14 9 5 9 11 11 11 11 12 14 12 8 nan nan nan
nan nan nan nan nan nan nan nan nan nan nan nan 13 14 14 21 26 27 32 36 43 32 26 31 29 22 23 29 29 31 28 nan nan 17 16 14 11 12 15 17 17 16 nan nan nan 11 nan nan nan
nan nan nan nan nan nan nan nan nan nan nan nan nan 15 10 16 22 27 36 39 30 31 35 38 17 23 26 29 34 35 30 20 18 16 19 21 14 17 19 20 20 nan nan nan nan nan nan nan nan
nan nan nan nan nan nan nan nan nan nan nan nan nan 21 17 17 20 21 28 35 26 30 30 42 5 24 27 29 30 33 34 23 20 22 24 25 17 15 16 18 nan nan nan nan nan nan nan nan nan
nan nan nan nan nan nan nan nan nan nan nan nan 12 16 22 16 22 23 31 35 23 22 24 33 38 22 26 32 34 30 29 27 25 27 21 22 23 21 15 nan nan nan nan nan nan nan nan nan nan
nan nan nan nan nan nan nan nan nan 20 6 6 nan nan 29 35 41 38 29 25 18 21 20 25 30 26 27 29 30 27 28 27 32 26 17 16 23 21 17 nan nan nan nan nan nan nan nan nan nan
nan nan nan nan nan nan nan nan nan 17 17 20 25 29 31 38 43 42 43 35 15 9 20 26 26 28 24 27 30 27 25 25 29 23 17 9 15 17 13 nan nan nan nan nan nan nan nan nan nan
nan nan nan nan nan nan nan nan nan 21 18 16 28 31 32 33 36 51 49 27 14 11 18 22 23 24 28 28 29 26 24 nan nan nan nan 10 11 nan nan nan nan nan nan nan nan nan nan nan nan
nan nan nan nan nan nan nan nan nan 12 18 20 26 32 35 36 30 50 55 46 31 16 12 19 23 25 29 25 26 27 24 nan nan nan nan nan nan nan nan nan nan nan nan nan nan nan nan nan nan
nan nan nan nan nan nan nan nan 24 11 10 20 25 26 29 38 40 55 65 14 5 9 10 20 19 28 25 25 25 26 23 nan 22 nan nan nan nan nan nan nan nan nan nan nan nan nan nan nan nan
Wind_Direction
25 30 46 60 58 59 nan 61 48 47 63 69 54 52 42 52 38 40 21 10 340 346 28 3 353 344 339 331 324 324 319 309 297 297 302 311 321 329 310 269 211 228 265 283 271 274 274 275 263
27 26 52 61 60 nan 56 64 29 42 42 36 40 43 50 55 35 15 6 0 346 352 16 16 358 349 346 343 341 337 332 312 300 297 305 315 316 310 348 309 272 262 121 261 266 278 261 264 262
24 45 51 57 58 nan 43 57 28 28 27 29 40 39 37 37 17 17 13 354 351 5 17 15 354 353 350 347 351 354 350 338 320 321 323 318 314 309 294 292 303 245 256 280 266 239 222 231 237
39 56 63 nan nan nan 39 42 39 23 23 37 36 37 31 48 25 21 358 354 1 20 21 8 359 354 345 339 346 0 355 354 327 330 332 332 332 285 299 285 275 247 229 263 278 244 221 205 198
80 41 nan nan nan 61 42 31 32 25 30 16 36 32 33 36 5 358 4 5 4 25 32 18 4 357 346 343 347 349 340 334 323 312 316 319 322 328 317 308 319 279 269 255 241 246 229 218 190
nan nan nan nan nan nan 48 34 24 13 359 360 14 25 35 12 7 20 17 15 19 28 32 27 7 0 348 344 347 342 343 333 327 327 315 317 304 303 295 304 310 332 321 240 231 220 228 222 207
5 nan nan nan nan 59 54 28 15 3 9 25 13 23 19 20 23 19 20 26 25 33 35 31 19 8 355 344 350 349 349 341 333 327 323 328 326 315 301 289 295 313 338 303 244 216 195 171 194
331 nan nan nan nan nan 95 55 8 358 36 21 8 30 33 32 15 17 23 33 34 44 41 34 33 27 6 359 359 358 352 348 341 332 326 330 323 314 303 274 257 270 290 314 279 231 197 189 178
14 nan nan nan nan 36 38 21 2 8 7 23 39 24 13 13 6 13 18 32 37 37 35 42 34 37 39 44 24 4 350 353 351 331 329 320 275 285 313 293 283 251 253 262 263 220 212 212 191
nan nan nan nan nan nan 40 8 17 8 14 17 18 2 355 4 11 10 16 23 30 32 32 32 38 32 36 38 28 5 360 296 280 263 235 257 265 256 251 259 303 282 252 247 238 232 221 205 210
nan nan nan nan nan nan nan nan 27 2 12 8 354 356 354 2 12 11 17 17 21 29 22 22 27 32 32 32 22 358 331 326 257 260 244 236 238 246 228 219 219 228 252 233 236 235 223 217 217
nan nan nan nan 32 nan nan nan 23 20 10 350 354 346 352 1 14 17 14 14 15 25 23 18 16 20 34 29 19 3 349 329 303 276 263 251 229 239 240 217 222 237 232 253 250 245 242 227 229
nan nan nan nan nan nan nan nan 33 45 10 359 352 344 352 356 12 19 16 9 10 21 27 24 23 31 28 27 12 10 352 328 289 259 229 242 245 248 242 238 225 227 225 233 242 235 245 nan nan
nan nan nan nan nan nan nan 77 61 39 357 347 345 355 356 358 4 3 9 11 10 15 28 24 24 23 12 16 15 15 5 344 314 282 258 224 229 246 245 232 237 235 227 230 239 243 246 nan nan
nan nan nan nan nan nan nan 132 51 354 343 345 343 352 3 1 357 4 3 12 9 15 21 22 16 11 8 6 3 8 14 356 321 286 263 197 221 230 246 234 231 236 232 nan nan nan nan nan nan
nan nan nan nan nan nan nan nan 32 352 334 349 345 359 11 11 3 358 4 8 9 9 15 19 17 8 4 358 352 360 9 8 351 39 197 nan nan 215 233 232 229 nan nan nan nan nan nan nan nan
nan nan nan nan nan nan nan nan 335 321 331 7 15 24 4 348 358 359 1 8 2 7 11 17 12 6 350 354 348 347 4 7 356 337 nan 231 171 238 247 240 nan nan nan nan nan nan nan nan nan
nan nan nan nan nan nan nan nan nan 310 355 4 20 20 14 11 14 9 358 3 3 2 10 10 7 359 349 354 354 342 350 8 nan nan nan nan nan 250 246 225 nan nan nan nan nan nan nan nan 249
nan nan nan nan nan nan nan nan nan 312 343 14 356 357 349 351 358 4 351 358 0 356 354 360 350 5 359 358 350 351 nan 358 10 nan nan nan nan nan 218 210 nan nan 217 243 255 nan 273 nan nan
nan nan nan nan nan nan nan nan nan nan 344 352 356 11 347 325 334 348 345 349 356 353 354 348 350 354 8 354 354 347 nan nan nan nan 6 300 nan 254 214 209 213 227 240 237 255 255 217 nan nan
nan nan nan nan nan nan nan nan nan nan nan nan 331 350 341 333 338 332 341 351 350 341 348 343 330 349 358 355 340 340 336 nan nan 340 348 350 282 254 234 236 226 233 238 233 227 218 nan nan nan
nan nan nan nan nan nan nan nan nan nan nan nan 335 342 352 330 324 318 337 348 342 331 336 326 9 360 353 350 342 337 336 nan nan 321 322 311 321 263 261 242 238 234 nan nan nan 232 nan nan nan
nan nan nan nan nan nan nan nan nan nan nan nan nan 324 346 321 328 325 345 341 333 321 332 322 7 352 350 351 346 340 339 331 311 300 300 295 293 285 260 249 246 nan nan nan nan nan nan nan nan
nan nan nan nan nan nan nan nan nan nan nan nan nan 316 325 330 322 329 324 319 315 321 334 293 315 351 345 349 348 347 336 331 315 299 295 282 277 272 273 261 nan nan nan nan nan nan nan nan nan
nan nan nan nan nan nan nan nan nan nan nan nan 333 337 328 311 313 307 310 312 312 313 327 326 340 4 347 347 349 346 348 335 331 319 306 260 261 256 260 nan nan nan nan nan nan nan nan nan nan
nan nan nan nan nan nan nan nan nan 255 306 319 nan nan 276 282 274 262 226 223 304 314 336 324 342 348 349 348 338 342 347 343 336 322 283 251 258 249 253 nan nan nan nan nan nan nan nan nan nan
nan nan nan nan nan nan nan nan nan 249 257 273 282 293 305 299 298 288 275 225 155 322 332 335 334 342 335 341 337 344 346 346 344 328 288 275 253 234 261 nan nan nan nan nan nan nan nan nan nan
nan nan nan nan nan nan nan nan nan 260 278 283 286 294 304 315 301 280 316 337 169 101 339 316 329 340 331 337 344 346 345 nan nan nan nan 290 248 nan nan nan nan nan nan nan nan nan nan nan nan
nan nan nan nan nan nan nan nan nan 287 276 305 306 313 321 303 295 310 314 312 198 138 334 316 332 338 331 335 345 345 348 nan nan nan nan nan nan nan nan nan nan nan nan nan nan nan nan nan nan
nan nan nan nan nan nan nan nan 275 291 297 307 306 323 307 313 319 328 315 168 159 101 323 321 337 333 332 330 347 350 353 nan 1 nan nan nan nan nan nan nan nan nan nan nan nan nan nan nan nan